GW6648 Weather Reports


time (UTC)temp
F
wind
direction
speed
knots
gust
knots
rain 1hr
in
rain 24hr
in
rain mn
in
humidity
%
barometer
mb
20260508115527 63 326 0.9 2.6 0.00 0.00 0.00 71
20260508115023 63 167 2.6 5.2 0.00 0.00 0.00 69
20260508114520 63 348 0.0 3.5 0.00 0.00 0.00 69
20260508114017 63 163 1.7 5.2 0.00 0.00 0.00 69
20260508113514 63 198 0.9 3.5 0.00 0.00 0.00 68
20260508113012 63 352 0.0 2.6 0.00 0.00 0.00 69
20260508112508 63 323 1.7 3.5 0.00 0.00 0.00 69
20260508112005 63 159 2.6 5.2 0.00 0.00 0.00 69
20260508111502 63 21 0.0 3.5 0.00 0.00 0.00 69
20260508110959 63 331 0.0 3.5 0.00 0.00 0.00 69
20260508110457 63 322 0.0 0.9 0.00 0.00 0.00 69
20260508105956 63 133 0.0 3.5 0.00 0.00 0.00 69
20260508105453 63 194 0.9 3.5 0.00 0.00 0.00 69
20260508104950 63 182 1.7 2.6 0.00 0.00 0.00 69
20260508104447 64 251 1.7 2.6 0.00 0.00 0.00 69
20260508103944 64 264 0.9 3.5 0.00 0.00 0.00 69
20260508103441 64 171 2.6 5.2 0.00 0.00 0.00 69
20260508102938 64 208 1.7 3.5 0.00 0.00 0.00 69
20260508102437 65 144 0.9 2.6 0.00 0.00 0.00 69
20260508101933 65 178 2.6 2.6 0.00 0.00 0.00 69
20260508101431 66 171 0.9 2.6 0.00 0.00 0.00 68
20260508100928 66 187 0.9 0.9 0.00 0.00 0.00 69
20260508100426 66 331 0.9 1.7 0.00 0.00 0.00 68
20260508095922 67 174 0.9 2.6 0.00 0.00 0.00 68
20260508095420 67 140 0.0 1.7 0.00 0.00 0.00 68
20260508094916 68 265 0.9 2.6 0.00 0.00 0.00 67
20260508094413 69 17 0.9 1.7 0.00 0.00 0.00 67
20260508093910 69 145 1.7 2.6 0.00 0.00 0.00 65
20260508093408 71 249 0.9 2.6 0.00 0.00 0.00 62
20260508092905 72 204 0.9 1.7 0.00 0.00 0.00 57
20260508092403 72 291 0.0 1.7 0.00 0.00 0.00 54
20260508091901 73 257 0.9 5.2 0.00 0.00 0.00 52
20260508091357 73 178 3.5 6.1 0.00 0.00 0.00 50
20260508090855 74 254 1.7 5.2 0.00 0.00 0.00 51
20260508090354 74 168 1.7 2.6 0.00 0.00 0.00 50
20260508085849 75 186 3.5 8.7 0.00 0.00 0.00 47
20260508085346 75 221 5.2 8.7 0.00 0.00 0.00 47
20260508084842 75 184 3.5 9.6 0.00 0.00 0.00 46
20260508084339 76 197 5.2 8.7 0.00 0.00 0.00 45
20260508083837 76 191 6.1 8.7 0.00 0.00 0.00 44
20260508083334 76 181 7.0 8.7 0.00 0.00 0.00 44
20260508082833 76 228 8.7 13.9 0.00 0.00 0.00 43
20260508082331 76 217 1.7 7.0 0.00 0.00 0.00 45
20260508081829 77 233 1.7 8.7 0.00 0.00 0.00 45
20260508081325 76 257 4.3 13.0 0.00 0.00 0.00 43
20260508080823 76 174 2.6 5.2 0.00 0.00 0.00 43
20260508080320 76 198 5.2 7.0 0.00 0.00 0.00 43
20260508075817 76 226 2.6 5.2 0.00 0.00 0.00 42
20260508075313 76 282 0.9 5.2 0.00 0.00 0.00 43
20260508074812 77 154 1.7 7.0 0.00 0.00 0.00 42
20260508074308 76 177 3.5 11.3 0.00 0.00 0.00 41
20260508073805 76 195 10.4 14.8 0.00 0.00 0.00 42
20260508073303 76 206 3.5 9.6 0.00 0.00 0.00 45
20260508072759 76 214 3.5 5.2 0.00 0.00 0.00 47
20260508072256 76 199 4.3 7.0 0.00 0.00 0.00 45
20260508071753 76 221 4.3 5.2 0.00 0.00 0.00 49
20260508071252 76 184 5.2 7.0 0.00 0.00 0.00 49
20260508070749 76 176 4.3 9.6 0.00 0.00 0.00 49
20260508070248 76 169 9.6 11.3 0.00 0.00 0.00 53
20260508065744 76 189 3.5 3.5 0.00 0.00 0.00 58
20260508065242 76 195 4.3 6.1 0.00 0.00 0.00 58
20260508064740 76 202 2.6 3.5 0.00 0.00 0.00 57
20260508064238 75 238 0.9 5.2 0.00 0.00 0.00 57
20260508063735 75 307 0.9 1.7 0.00 0.00 0.00 61
20260508063233 75 317 0.0 0.0 0.00 0.00 0.00 65
20260508062730 75 333 0.0 0.9 0.00 0.00 0.00 67
20260508062227 76 9 0.9 1.7 0.00 0.00 0.00 67
20260508061724 76 292 0.0 0.9 0.00 0.00 0.00 70
20260508061221 75 294 0.0 0.0 0.00 0.00 0.00 71
20260508060717 75 263 0.9 0.9 0.00 0.00 0.00 71
20260508060215 75 265 0.0 0.9 0.00 0.00 0.00 73
20260508055710 74 309 0.0 0.9 0.00 0.00 0.00 74
20260508055208 74 347 0.9 0.9 0.00 0.00 0.00 75
20260508054704 74 359 2.6 2.6 0.00 0.00 0.00 76
20260508054202 73 344 0.0 0.9 0.00 0.00 0.00 77
20260508053659 73 357 0.9 0.9 0.00 0.00 0.00 78
20260508053156 73 12 0.0 0.0 0.00 0.00 0.00 78
20260508052653 73 21 0.0 0.0 0.00 0.00 0.00 78
20260508052150 72 359 0.0 0.9 0.00 0.00 0.00 78
20260508051646 72 7 0.9 1.7 0.00 0.00 0.00 79
20260508051142 72 351 1.7 3.5 0.00 0.00 0.00 79
20260508050638 72 0 1.7 3.5 0.00 0.00 0.00 79
20260508050136 72 356 3.5 3.5 0.00 0.00 0.00 79
20260508045631 72 1 1.7 1.7 0.00 0.00 0.00 79
20260508045130 72 0 0.0 1.7 0.00 0.00 0.00 78
20260508044627 72 357 1.7 2.6 0.00 0.00 0.00 78
20260508044123 72 0 2.6 3.5 0.00 0.00 0.00 79
20260508043619 72 347 3.5 5.2 0.00 0.00 0.00 79
20260508043117 72 357 2.6 3.5 0.00 0.00 0.00 78
20260508042614 72 356 2.6 5.2 0.00 0.00 0.00 79
20260508042111 72 358 4.3 5.2 0.00 0.00 0.00 78
20260508041607 72 4 1.7 5.2 0.00 0.00 0.00 78
20260508041104 73 347 2.6 3.5 0.00 0.00 0.00 78
20260508040600 73 344 1.7 2.6 0.00 0.00 0.00 79
20260508040058 73 356 1.7 2.6 0.00 0.00 0.00 77
20260508035555 73 357 3.5 5.2 0.00 0.00 0.00 76
20260508035052 73 328 1.7 3.5 0.00 0.00 0.00 77
20260508034549 74 12 3.5 5.2 0.00 0.00 0.00 76
20260508034046 74 5 2.6 2.6 0.00 0.00 0.00 76
20260508033544 74 355 2.6 3.5 0.00 0.00 0.00 76
20260508033042 74 346 0.9 2.6 0.00 0.00 0.00 76
20260508032538 74 12 2.6 3.5 0.00 0.00 0.00 76
20260508032036 75 9 0.0 1.7 0.00 0.00 0.00 76
20260508031533 75 346 1.7 1.7 0.00 0.00 0.00 75
20260508031028 75 347 0.0 0.9 0.00 0.00 0.00 76
20260508030525 74 4 0.0 1.7 0.00 0.00 0.00 77
20260508030024 74 156 0.9 1.7 0.00 0.00 0.00 78
20260508025519 74 80 0.9 1.7 0.00 0.00 0.00 77
20260508025016 75 199 1.7 2.6 0.00 0.00 0.00 75
20260508024512 75 300 0.0 1.7 0.00 0.00 0.00 76
20260508024009 75 182 0.9 1.7 0.00 0.00 0.00 77
20260508023506 74 61 0.0 0.9 0.00 0.00 0.00 79
20260508023003 74 6 1.7 2.6 0.00 0.00 0.00 78
20260508022459 74 163 1.7 3.5 0.00 0.00 0.00 77
20260508021955 73 330 0.0 1.7 0.00 0.00 0.00 80
20260508021452 74 25 0.9 1.7 0.00 0.00 0.00 78
20260508020948 74 326 0.0 0.0 0.00 0.00 0.00 77
20260508020446 74 211 0.9 1.7 0.00 0.00 0.00 77
20260508015942 73 18 0.0 0.9 0.00 0.00 0.00 78
20260508015441 73 6 2.6 3.5 0.00 0.00 0.00 77
20260508014937 73 3 0.9 1.7 0.00 0.00 0.00 78
20260508014434 73 34 0.9 1.7 0.00 0.00 0.00 78
20260508013929 73 5 1.7 1.7 0.00 0.00 0.00 78
20260508013426 73 53 0.9 1.7 0.00 0.00 0.00 79
20260508012923 73 68 0.0 0.9 0.00 0.00 0.00 78
20260508012420 72 13 0.9 1.7 0.00 0.00 0.00 78
20260508011918 72 31 0.0 0.9 0.00 0.00 0.00 79
20260508011416 73 3 2.6 2.6 0.00 0.00 0.00 78
20260508010913 73 348 1.7 3.5 0.00 0.00 0.00 79
20260508010410 73 357 1.7 2.6 0.00 0.00 0.00 78
20260508005907 72 9 0.0 0.9 0.00 0.00 0.00 81
20260508005403 71 7 0.0 1.7 0.00 0.00 0.00 82
20260508004900 71 14 0.0 0.9 0.00 0.00 0.00 82
20260508004356 71 56 0.9 3.5 0.00 0.00 0.00 82
20260508003853 70 52 1.7 2.6 0.00 0.00 0.00 83
20260508003349 70 1 1.7 2.6 0.00 0.00 0.00 83
20260508002847 70 46 0.9 1.7 0.00 0.00 0.00 84
20260508002343 70 103 0.0 0.9 0.00 0.00 0.00 84
20260508001840 69 305 0.0 0.9 0.00 0.00 0.00 85
20260508001336 69 341 0.0 1.7 0.00 0.00 0.00 86
20260508000832 69 206 0.9 1.7 0.00 0.00 0.00 86
20260508000328 69 313 0.0 0.0 0.00 0.00 0.00 87
20260507235825 68 215 0.0 0.9 0.00 0.00 0.00 87
20260507235323 68 202 0.0 0.9 0.00 0.00 0.00 87
20260507234820 69 185 2.6 2.6 0.00 0.00 0.00 88
20260507234316 68 307 0.0 2.6 0.00 0.00 0.00 89
20260507233813 68 192 1.7 1.7 0.00 0.00 0.00 89
20260507233311 67 214 0.9 1.7 0.00 0.00 0.00 90
20260507232809 67 285 0.0 0.0 0.00 0.00 0.00 91
20260507232306 67 275 0.0 0.9 0.00 0.00 0.00 91
20260507231801 67 202 0.9 1.7 0.00 0.00 0.00 91
20260507231258 66 175 1.7 2.6 0.00 0.00 0.00 91
20260507230754 66 189 0.9 1.7 0.00 0.00 0.00 91
20260507230252 66 174 0.9 1.7 0.00 0.00 0.00 91
20260507225752 67 189 1.7 1.7 0.00 0.00 0.00 91
20260507225248 66 185 0.0 0.0 0.00 0.00 0.00 91
20260507224744 67 186 0.0 0.0 0.00 0.00 0.00 91
20260507224241 66 188 0.0 0.0 0.00 0.00 0.00 91
20260507223737 66 170 0.9 1.7 0.00 0.00 0.00 91
20260507223234 66 217 0.9 1.7 0.00 0.00 0.00 91
20260507222731 66 180 1.7 2.6 0.00 0.00 0.00 91
20260507222227 66 151 1.7 2.6 0.00 0.00 0.00 91
20260507221724 66 197 0.9 1.7 0.00 0.00 0.00 91
20260507221220 66 173 1.7 1.7 0.00 0.00 0.00 91
20260507220717 66 252 0.9 0.9 0.00 0.00 0.00 91
20260507220215 66 221 0.9 1.7 0.00 0.00 0.00 91
20260507215711 66 176 1.7 2.6 0.00 0.00 0.00 91
20260507215209 66 174 1.7 1.7 0.00 0.00 0.00 91
20260507214706 66 204 0.9 1.7 0.00 0.00 0.00 91
20260507214202 66 230 0.0 0.9 0.00 0.00 0.00 92
20260507213658 66 229 0.0 0.0 0.00 0.00 0.00 92
20260507213156 66 229 0.9 0.9 0.00 0.00 0.00 92
20260507212651 65 229 0.0 0.0 0.00 0.00 0.00 93
20260507212148 65 230 0.0 0.9 0.00 0.00 0.00 93
20260507211645 65 229 0.0 0.9 0.00 0.00 0.00 93
20260507211141 65 221 1.7 1.7 0.00 0.00 0.00 93
20260507210639 65 71 0.9 0.9 0.00 0.00 0.00 93
20260507210135 65 6 0.0 0.0 0.00 0.00 0.00 93
20260507205632 65 5 0.0 0.0 0.00 0.00 0.00 94
20260507205128 65 5 0.0 0.0 0.00 0.00 0.00 94
20260507204624 65 132 0.0 0.0 0.00 0.00 0.00 94
20260507204122 64 132 0.0 0.0 0.00 0.00 0.00 94
20260507203620 64 133 0.9 1.7 0.00 0.00 0.00 94
20260507203117 64 194 1.7 1.7 0.00 0.00 0.00 94
20260507202613 64 230 0.0 0.9 0.00 0.00 0.00 94
20260507202109 64 0 0.0 0.9 0.00 0.00 0.00 94
20260507201604 64 0 1.7 2.6 0.00 0.00 0.00 94
20260507201102 64 12 0.9 1.7 0.00 0.00 0.00 93
20260507200557 64 355 1.7 1.7 0.00 0.00 0.00 93
20260507200053 64 349 0.9 0.9 0.00 0.00 0.00 93
20260507195551 64 135 0.0 0.9 0.00 0.00 0.00 93
20260507195048 64 48 0.0 0.9 0.00 0.00 0.00 93
20260507194544 64 76 0.0 1.7 0.00 0.00 0.00 93
20260507194040 65 7 0.0 1.7 0.00 0.00 0.00 93
20260507193537 65 322 0.0 0.0 0.00 0.00 0.00 93
20260507193034 65 230 1.7 2.6 0.00 0.00 0.00 93
20260507192530 65 315 0.0 0.9 0.00 0.00 0.00 93
20260507192027 65 307 0.0 0.9 0.00 0.00 0.00 93
20260507191523 65 330 0.0 0.9 0.00 0.00 0.00 93
20260507191020 65 261 0.0 0.9 0.00 0.00 0.00 93
20260507190517 65 316 0.0 0.9 0.00 0.00 0.00 92
20260507190016 65 279 0.0 0.0 0.00 0.00 0.00 92
20260507185513 65 234 0.0 1.7 0.00 0.00 0.00 92
20260507185010 64 221 0.9 1.7 0.00 0.00 0.00 93
20260507184509 65 284 0.0 0.0 0.00 0.00 0.00 93
20260507184006 65 274 0.0 0.0 0.00 0.00 0.00 93
20260507183502 65 282 0.0 0.0 0.00 0.00 0.00 93
20260507182959 65 282 0.0 0.0 0.00 0.00 0.00 93
20260507182455 64 248 0.9 0.9 0.00 0.00 0.00 93
20260507181951 64 277 0.0 0.9 0.00 0.00 0.00 93
20260507181448 64 262 0.9 0.9 0.00 0.00 0.00 92
20260507180944 64 288 0.0 0.0 0.00 0.00 0.00 92
20260507180441 64 288 0.0 0.0 0.00 0.00 0.00 92
20260507175937 64 287 0.0 0.0 0.00 0.00 0.00 92
20260507175434 65 287 0.0 0.0 0.00 0.00 0.00 92
20260507174932 65 285 0.0 0.9 0.00 0.00 0.00 92
20260507174429 65 285 0.0 0.0 0.00 0.00 0.00 92
20260507173926 65 245 0.9 0.9 0.00 0.00 0.00 92
20260507173423 65 211 0.9 1.7 0.00 0.00 0.00 92
20260507172920 64 226 1.7 1.7 0.00 0.00 0.00 92
20260507172416 64 224 0.0 0.0 0.00 0.00 0.00 91
20260507171912 64 224 0.0 0.0 0.00 0.00 0.00 91
20260507171409 64 224 0.0 0.0 0.00 0.00 0.00 91
20260507170906 65 224 0.0 0.0 0.00 0.00 0.00 91
20260507170403 65 223 0.0 0.0 0.00 0.00 0.00 90
20260507165859 65 223 0.0 0.0 0.00 0.00 0.00 90
20260507165354 65 223 0.0 0.0 0.00 0.00 0.00 90
20260507164851 65 223 0.0 0.0 0.00 0.00 0.00 90
20260507164348 65 223 0.0 0.9 0.00 0.00 0.00 89
20260507163845 65 223 0.9 0.9 0.00 0.00 0.00 89
20260507163343 65 224 0.0 0.0 0.00 0.00 0.00 89
20260507162839 65 223 0.0 0.9 0.00 0.00 0.00 89
20260507162334 65 228 0.9 0.9 0.00 0.00 0.00 89
20260507161832 65 229 0.9 1.7 0.00 0.00 0.00 88
20260507161328 65 294 0.0 1.7 0.00 0.00 0.00 89
20260507160825 65 229 2.6 2.6 0.00 0.00 0.00 89
20260507160321 65 290 0.0 0.0 0.00 0.00 0.00 88
20260507155818 65 290 0.0 0.9 0.00 0.00 0.00 88
20260507155313 65 187 0.0 0.9 0.00 0.00 0.00 88
20260507154810 66 188 0.9 1.7 0.00 0.00 0.00 88
20260507154307 65 189 2.6 2.6 0.00 0.00 0.00 89
20260507153804 65 169 1.7 1.7 0.00 0.00 0.00 89
20260507153300 65 235 0.9 0.9 0.00 0.00 0.00 89
20260507152757 65 235 0.0 0.9 0.00 0.00 0.00 89
20260507152253 65 243 0.9 0.9 0.00 0.00 0.00 89
20260507151749 65 251 0.0 0.9 0.00 0.00 0.00 88
20260507151246 65 308 0.0 0.9 0.00 0.00 0.00 88
20260507150743 65 306 0.0 0.0 0.00 0.00 0.00 88
20260507150239 66 27 0.0 0.0 0.00 0.00 0.00 87
20260507145735 66 31 0.0 0.0 0.00 0.00 0.00 87
20260507145232 66 97 0.0 0.9 0.00 0.00 0.00 88
20260507144729 66 157 0.9 0.9 0.00 0.00 0.00 88
20260507144227 65 212 0.9 0.9 0.00 0.00 0.00 87
20260507143723 66 345 0.0 0.0 0.00 0.00 0.00 87
20260507143220 66 346 0.0 0.9 0.00 0.00 0.00 86
20260507142716 67 239 0.0 0.0 0.00 0.00 0.00 86
20260507142213 67 225 0.0 0.9 0.00 0.00 0.00 85
20260507141709 67 219 1.7 1.7 0.00 0.00 0.00 86
20260507141206 67 219 0.0 0.9 0.00 0.00 0.00 85
20260507140702 67 168 0.9 1.7 0.00 0.00 0.00 85
20260507140200 67 167 0.9 0.9 0.00 0.00 0.00 84
20260507135657 67 184 0.9 1.7 0.00 0.00 0.00 84
20260507135154 67 265 0.0 0.9 0.00 0.00 0.00 83
20260507134650 67 238 0.9 0.9 0.00 0.00 0.00 83
20260507134147 67 227 0.9 1.7 0.00 0.00 0.00 83
20260507133643 67 181 0.9 2.6 0.00 0.00 0.00 84
20260507133140 67 170 0.9 1.7 0.00 0.00 0.00 84
20260507132638 67 75 0.9 1.7 0.00 0.00 0.00 83
20260507132133 68 358 0.0 1.7 0.00 0.00 0.00 83
20260507131630 68 14 0.0 1.7 0.00 0.00 0.00 83
20260507131128 68 65 0.0 0.9 0.00 0.00 0.00 83
20260507130624 68 70 0.0 0.9 0.00 0.00 0.00 83
20260507130123 68 180 2.6 2.6 0.00 0.00 0.00 83
20260507125621 69 166 1.7 2.6 0.00 0.00 0.00 83
20260507125118 69 184 2.6 3.5 0.00 0.00 0.00 82
20260507124614 69 174 2.6 3.5 0.00 0.00 0.00 82
20260507124112 69 183 2.6 3.5 0.00 0.00 0.00 82
20260507123610 69 166 1.7 2.6 0.00 0.00 0.00 82
20260507123107 69 126 0.9 1.7 0.00 0.00 0.00 82
20260507122602 69 129 0.9 1.7 0.00 0.00 0.00 82
20260507122058 69 172 1.7 2.6 0.00 0.00 0.00 82
20260507121554 69 173 0.9 2.6 0.00 0.00 0.00 82
20260507121050 69 160 0.9 2.6 0.00 0.00 0.00 82
20260507120546 68 173 0.9 1.7 0.00 0.00 0.00 82
20260507120043 69 162 0.9 1.7 0.00 0.00 0.00 82